Portsmouth, NH

6:18 AM EST on November 12, 2019 (GMT -0500)
Pease International Tradeport

Weather History for KPSM - October, 2019

Change the Weather History Date:

Sunday, October 20, 2019

  Actual Average Record
Temperature  
Mean Temperature 45 °F -  
Max Temperature 57 °F 56 °F 76 °F (1984)
Min Temperature 34 °F 38 °F 27 °F (1988)
Degree Days  
Heating Degree Days 20    
Moisture  
Dew Point 41 °F    
Average Humidity 82    
Maximum Humidity 94    
Minimum Humidity 61    
Precipitation  
Precipitation 0.00 in - - ()
Sea Level Pressure  
Sea Level Pressure 30.07 in    
Wind  
Wind Speed 2 mph ()    
Max Wind Speed 8 mph    
Max Gust Speed -    
Visibility 10.0 miles    
Events      
Averages and records for this station are not official NWS values.
T = Trace of Precipitation, MM = Missing Value Source: Averaged Metar Reports

Daily Weather History Graph

Daily Weather History Graph

Search for Another Location

Airport or City:

Astronomy

Oct. 20, 2019 Rise Set
Actual Time 7:02 AM EDT 5:52 PM EDT
Civil Twilight 6:33 AM EDT 6:21 PM EDT
Nautical Twilight 6:00 AM EDT 6:54 PM EDT
Astronomical Twilight 5:27 AM EDT 7:27 PM EDT
Moon 10:52 PM EDT (10/20) 1:34 PM EDT (10/20)
Length of Visible Light 11h 47m
Length of Day
10h 50m
Waning Gibbous, 59% of the Moon is Illuminated
Oct 20
Waning Gibbous
Oct 21
Last Quarter
Oct 27
New
Nov 4
First Quarter
Nov 12
Full

Hourly Weather History & Observations

Time (EDT) Temp. Windchill Dew Point Humidity Pressure Visibility Wind Dir Wind Speed Gust Speed Precip Events Conditions
12:56 AM 39.4 °F - 37.8 °F 94% 30.05 in 10.0 mi Calm Calm - N/A   Partly Cloudy
1:56 AM 37.8 °F - 35.6 °F 92% 30.06 in 10.0 mi Calm Calm - N/A   Mostly Cloudy
2:56 AM 37.2 °F - 35.6 °F 94% 30.05 in 10.0 mi Calm Calm - N/A   Mostly Cloudy
3:56 AM 35.4 °F 32.6 °F 33.3 °F 92% 30.06 in 10.0 mi NW 3.5 mph - N/A   Scattered Clouds
4:56 AM 35.4 °F 31.5 °F 33.6 °F 93% 30.08 in 10.0 mi NNW 4.6 mph - N/A   Scattered Clouds
5:56 AM 36.1 °F - 33.4 °F 90% 30.08 in 10.0 mi Calm Calm - N/A   Mostly Cloudy
6:56 AM 34.7 °F - 31.8 °F 89% 30.08 in 10.0 mi Calm Calm - N/A   Mostly Cloudy
7:56 AM 36.3 °F - 34.5 °F 93% 30.09 in 10.0 mi Calm Calm - N/A   Mostly Cloudy
8:56 AM 41.2 °F 38.2 °F 36.5 °F 83% 30.10 in 10.0 mi North 4.6 mph - N/A   Mostly Cloudy
9:56 AM 46.6 °F - 39.0 °F 75% 30.10 in 10.0 mi NNE 3.5 mph - N/A   Mostly Cloudy
10:56 AM 50.9 °F - 41.5 °F 70% 30.12 in 10.0 mi North 3.5 mph - N/A   Mostly Cloudy
11:56 AM 55.4 °F - 44.2 °F 66% 30.10 in 10.0 mi ENE 4.6 mph - N/A   Mostly Cloudy
12:56 PM 56.7 °F - 43.3 °F 61% 30.09 in 10.0 mi East 6.9 mph - N/A   Mostly Cloudy
1:56 PM 56.7 °F - 43.7 °F 62% 30.07 in 10.0 mi East 8.1 mph - N/A   Mostly Cloudy
2:56 PM 56.5 °F - 44.4 °F 64% 30.07 in 10.0 mi ESE 5.8 mph - N/A   Mostly Cloudy
3:56 PM 54.5 °F - 43.7 °F 67% 30.07 in 10.0 mi East 8.1 mph - N/A   Mostly Cloudy
4:56 PM 53.6 °F - 45.9 °F 75% 30.07 in 10.0 mi ESE 6.9 mph - N/A   Overcast
5:56 PM 52.7 °F - 47.1 °F 81% 30.06 in 10.0 mi ENE 4.6 mph - N/A   Overcast
6:56 PM 52.0 °F - 47.3 °F 84% 30.06 in 10.0 mi ENE 4.6 mph - N/A   Overcast
7:56 PM 51.4 °F - 47.3 °F 86% 30.06 in 10.0 mi Calm Calm - N/A   Overcast
8:56 PM 51.1 °F - 47.7 °F 88% 30.07 in 10.0 mi Calm Calm - N/A   Overcast
9:56 PM 51.1 °F - 48.2 °F 90% 30.07 in 10.0 mi North 3.5 mph - N/A   Overcast
10:56 PM 50.4 °F - 47.8 °F 91% 30.07 in 10.0 mi Calm Calm - N/A   Overcast
11:56 PM 50.2 °F - 48.0 °F 92% 30.05 in 10.0 mi North 5.8 mph - N/A   Overcast